Tracking 17703 objects as of 1-June-2016
HD Live streaming from Space Station
objects crossing your sky now

DEMETER

Track DEMETER now!
10-day predictions
DEMETER is classified as:


NORAD ID: 28368
Int'l Code: 2004-025C
Perigee: 653.8 km
Apogee: 657.2 km
Inclination: 97.7 °
Period: 97.7 minutes
Semi major axis: 7026 km
RCS: 0.9257 m2 (medium)
Launch date: June 29, 2004
Source: France (FR)
Launch site: TYURATAM MISSILE AND SPACE COMPLEX (TTMTR)

Study of ionosperic perturbations in relation with seismic activity; global study of the Earth electromagnetic environment.
Your satellite tracking list
Your tracking list is empty





NASA's NSSDC Master Catalog

Two Line Element Set (TLE):
1 28368U 04025C   16152.25272594  .00000250  00000-0  45118-4 0  9999
2 28368  97.7137 163.6789 0002407  73.8221 286.3254 14.74032686639356
Source of the keplerian elements: AFSPC

N2YO: 652